Weather Roundup
Issued by NWS Chicago, IL

Home | Current Version | Previous Version | Graphics & Text | Print | Product List | Glossary On
Versions: 1 2 3 4 5 6 7 8 9 10 11 12 13 14 15 16 17 18 19 20 21 22 23 24 25 26 27 28 29 30 31 32 33 34 35 36 37 38 39 40 41 42 43 44 45 46 47 48 49 50
000
NZUS59 KLOT 210608
HRRLOT

CHICAGO AREA WEATHER ROUNDUP
NATIONAL WEATHER SERVICE CHICAGO/ROMEOVILLE IL
100 AM CDT MON MAY 21 2018

NOTE: "FAIR" INDICATES FEW OR NO CLOUDS BELOW 12,000 FEET WITH NO
SIGNIFICANT WEATHER AND/OR OBSTRUCTIONS TO VISIBILITY.

* THESE STATIONS ARE NOT UNDER NWS QUALITY CONTROL. THEY ALSO MAY NOT
  REPORT WEATHER SUCH AS PRECIPITATION OR FOG.

ILZ005-006-012>014-019>023-210700-
NORTHEAST ILLINOIS

CITY           SKY/WX    TMP DP  RH WIND       PRES   REMARKS
OHARE          CLOUDY    49  42  77 NE7       30.17S
6HR MIN TEMP:  48; 6HR MAX TEMP:  50;

MIDWAY         CLOUDY    51  46  83 NE7       30.16F
6HR MIN TEMP:  49; 6HR MAX TEMP:  51;

AURORA         CLOUDY    52  45  77 NE9       30.15F
6HR MIN TEMP:  51; 6HR MAX TEMP:  54;

LANSING*       CLOUDY    47  47 100 NE6       30.17F FOG
JOLIET*          N/A     53  49  87 NE8       30.14F
WAUKEGAN         N/A     45  42  89 N6        30.17F
6HR MIN TEMP:  44; 6HR MAX TEMP:  47;

DUPAGE AIRPORT CLOUDY    50  45  83 NE9       30.16S
6HR MIN TEMP:  49; 6HR MAX TEMP:  52;

WHEELING       MOCLDY    48  43  82 NE5       30.19F
6HR MIN TEMP:  48; 6HR MAX TEMP:  50;

KANKAKEE*      MOCLDY    51  48  92 NE9       30.14F
MORRIS*          N/A     52  46  80 NE6       30.13F
LEWIS AIRPORT* CLOUDY    50  46  87 E8        30.15F
NORTHERLY ISL    N/A     46  42  86 MISG        N/A
$$

WIZ051-052-058>065-066-070>072-210700-
SOUTHEAST WISCONSIN

CITY           SKY/WX    TMP DP  RH WIND       PRES   REMARKS
MILWAUKEE      MOCLDY    45  39  79 CALM      30.20F
6HR MIN TEMP:  43; 6HR MAX TEMP:  49;

KENOSHA*         N/A     44  40  85 NE6       30.18F
RACINE*          N/A     44  40  85 N6        30.20F
BURLINGTON       N/A     45  39  81 CALM      30.19S
WAUKESHA         N/A     41  36  81 CALM      30.20F
WEST BEND        N/A     43  37  81 CALM      30.20F
$$

INZ001>003-010>013-019-020-210700-
NORTHWEST INDIANA

CITY           SKY/WX    TMP DP  RH WIND       PRES   REMARKS
GARY*          CLOUDY    48  46  93 N6        30.18F
6HR MIN TEMP:  47; 6HR MAX TEMP:  49;

MICHIGAN CITY* NOT AVBL
RENSSELAER*    NOT AVBL
VALPARAISO     CLOUDY    52  50  93 NE3       30.16F
$$

LMZ740>746-210700-
SOUTHERN LAKE MICHIGAN

STATION/POSITION TIME  SKY/WX   TEMP WIND        PRES    VSBY
                                AIR  DIR/SP/G
                 (UTC)          (F)  (DEG/KT/KT) (MB)    (MI)
HARRISON CRIB    0540            45   20/ 10/ 11   N/A
BURNHAM HARBOR   0600            46  360/  8/ 12   N/A
CALUMET HARBOR   0548                 10/  8/ 11 1021.4F
BURNS HARBOR     0540            48   30/  6/  8 1022.4F
MICHIGAN CITY    NOT AVBL
$$

ABBREVIATIONS USED IN REMARKS
   TC - TEMPERATURE IN CELSIUS
  WCI - WIND CHILL INDEX
   HX - HEAT INDEX
  VSB - VISIBILITY
$$



USA.gov is the U.S. government's official web portal to all federal, state and local government web resources and services.